• In Belarus
  • List of Countries
  • For 7 days
  • Water Temperature
  • Weather Map
  • Weather Widgets
  • user-avatar
    Login

    Hourly Weather Korçe

    Today, 20 September, Friday

    Time Temperature Precipitation Wind Pressure Humidity
    00:00 +15°C° 0.5 mm 1 mps 668 mmHg 87%
    01:00 +14°C° 0.5 mm 1 mps 668 mmHg 90%
    02:00 +14°C° 0.7 mm 1 mps 668 mmHg 90%
    03:00 +14°C° 0.7 mm 1 mps 668 mmHg 90%
    04:00 +14°C° 0.7 mm 1 mps 668 mmHg 90%
    05:00 +14°C° 0.3 mm 1 mps 668 mmHg 89%
    06:00 +14°C° 0.3 mm 1 mps 668 mmHg 88%
    07:00 +14°C° 0.3 mm 1 mps 668 mmHg 88%
    08:00 +14°C° 0.1 mm 2 mps 668 mmHg 85%
    09:00 +14°C° 0.1 mm 2 mps 668 mmHg 82%
    10:00 +14°C° 0.1 mm 2 mps 669 mmHg 79%
    11:00 +16°C° 0 mm 2 mps 669 mmHg 72%
    12:00 +17°C° 0 mm 2 mps 669 mmHg 66%
    13:00 +18°C° 0 mm 2 mps 669 mmHg 59%
    14:00 +18°C° 0 mm 2 mps 669 mmHg 57%
    15:00 +18°C° 0 mm 2 mps 669 mmHg 56%
    16:00 +18°C° 0 mm 2 mps 669 mmHg 54%
    17:00 +17°C° 0 mm 2 mps 669 mmHg 56%
    18:00 +15°C° 0 mm 2 mps 669 mmHg 58%
    19:00 +14°C° 0 mm 2 mps 669 mmHg 60%
    20:00 +13°C° 0 mm 2 mps 669 mmHg 59%
    21:00 +12°C° 0 mm 2 mps 669 mmHg 58%
    22:00 +10°C° 0 mm 2 mps 669 mmHg 57%
    23:00 +10°C° 0 mm 2 mps 669 mmHg 57%

    Tomorrow, 21 September, Saturday

    Time Temperature Precipitation Wind Pressure Humidity
    00:00 +9°C° 0 mm 2 mps 669 mmHg 57%
    01:00 +9°C° 0 mm 2 mps 669 mmHg 57%
    02:00 +9°C° 0 mm 2 mps 669 mmHg 58%
    03:00 +8°C° 0 mm 2 mps 669 mmHg 58%
    04:00 +8°C° 0 mm 2 mps 669 mmHg 59%
    05:00 +9°C° 0 mm 2 mps 670 mmHg 58%
    06:00 +10°C° 0 mm 2 mps 670 mmHg 56%
    07:00 +10°C° 0 mm 2 mps 670 mmHg 54%
    08:00 +14°C° 0 mm 2 mps 671 mmHg 51%
    09:00 +16°C° 0 mm 2 mps 672 mmHg 48%
    10:00 +19°C° 0 mm 1 mps 673 mmHg 45%
    11:00 +20°C° 0 mm 1 mps 673 mmHg 43%
    12:00 +21°C° 0 mm 1 mps 673 mmHg 41%
    13:00 +22°C° 0 mm 1 mps 673 mmHg 38%
    14:00 +21°C° 0 mm 2 mps 673 mmHg 40%
    15:00 +20°C° 0 mm 2 mps 672 mmHg 41%
    16:00 +20°C° 0 mm 2 mps 672 mmHg 43%
    17:00 +18°C° 0 mm 2 mps 672 mmHg 51%
    18:00 +15°C° 0 mm 1 mps 671 mmHg 59%
    19:00 +13°C° 0 mm 1 mps 671 mmHg 67%
    20:00 +13°C° 0 mm 1 mps 671 mmHg 68%
    21:00 +12°C° 0 mm 1 mps 671 mmHg 70%
    22:00 +12°C° 0 mm 1 mps 670 mmHg 71%
    23:00 +11°C° 0 mm 1 mps 670 mmHg 73%

    Day after tomorrow, 22 September, Sunday

    Time Temperature Precipitation Wind Pressure Humidity
    00:00 +11°C° 0 mm 1 mps 670 mmHg 75%
    01:00 +11°C° 0 mm 1 mps 670 mmHg 77%
    02:00 +11°C° 0 mm 1 mps 670 mmHg 78%
    03:00 +10°C° 0 mm 1 mps 670 mmHg 78%
    04:00 +10°C° 0 mm 1 mps 670 mmHg 79%
    05:00 +11°C° 0 mm 1 mps 670 mmHg 75%
    06:00 +13°C° 0 mm 1 mps 670 mmHg 70%
    07:00 +14°C° 0 mm 1 mps 670 mmHg 66%
    08:00 +16°C° 0 mm 1 mps 671 mmHg 57%
    09:00 +19°C° 0 mm 1 mps 672 mmHg 49%
    10:00 +21°C° 0 mm 1 mps 672 mmHg 40%
    11:00 +22°C° 0 mm 1 mps 672 mmHg 38%
    12:00 +23°C° 0 mm 2 mps 672 mmHg 35%
    13:00 +23°C° 0 mm 2 mps 672 mmHg 32%
    14:00 +23°C° 0 mm 2 mps 672 mmHg 35%
    15:00 +21°C° 0 mm 2 mps 671 mmHg 37%
    16:00 +21°C° 0 mm 2 mps 670 mmHg 39%
    17:00 +18°C° 0 mm 2 mps 670 mmHg 49%
    18:00 +16°C° 0 mm 1 mps 670 mmHg 59%
    19:00 +14°C° 0 mm 1 mps 669 mmHg 68%
    20:00 +13°C° 0 mm 0 mps 669 mmHg 70%
    21:00 +12°C° 0 mm 0 mps 669 mmHg 71%
    22:00 +12°C° 0 mm 0 mps 669 mmHg 73%
    23:00 +12°C° 0 mm 0 mps 669 mmHg 73%

    23 September, Monday

    Time Temperature Precipitation Wind Pressure Humidity
    00:00 +13°C° 0 mm 1 mps 669 mmHg 73%
    01:00 +12°C° 0 mm 1 mps 668 mmHg 73%
    02:00 +13°C° 0 mm 1 mps 668 mmHg 72%
    03:00 +13°C° 0 mm 1 mps 668 mmHg 71%
    04:00 +13°C° 0 mm 1 mps 668 mmHg 71%
    05:00 +14°C° 0 mm 1 mps 668 mmHg 68%
    06:00 +14°C° 0 mm 1 mps 669 mmHg 66%
    07:00 +15°C° 0 mm 1 mps 669 mmHg 64%
    08:00 +16°C° 0 mm 1 mps 669 mmHg 61%
    09:00 +18°C° 0 mm 1 mps 669 mmHg 58%
    10:00 +18°C° 0 mm 2 mps 669 mmHg 56%
    11:00 +20°C° 0 mm 2 mps 670 mmHg 51%
    12:00 +23°C° 0 mm 2 mps 670 mmHg 46%
    13:00 +24°C° 0 mm 3 mps 670 mmHg 41%
    14:00 +24°C° 0 mm 3 mps 669 mmHg 43%
    15:00 +23°C° 0 mm 2 mps 669 mmHg 45%
    16:00 +23°C° 0 mm 2 mps 668 mmHg 47%
    17:00 +20°C° 0 mm 2 mps 668 mmHg 55%
    18:00 +18°C° 0 mm 2 mps 667 mmHg 63%
    19:00 +16°C° 0 mm 2 mps 666 mmHg 71%
    20:00 +16°C° 0 mm 3 mps 666 mmHg 75%
    21:00 +14°C° 0 mm 3 mps 666 mmHg 79%
    22:00 +13°C° 0 mm 3 mps 665 mmHg 84%
    23:00 +13°C° 0.6 mm 3 mps 665 mmHg 86%

    24 September, Tuesday

    Time Temperature Precipitation Wind Pressure Humidity
    00:00 +13°C° 0.6 mm 3 mps 665 mmHg 88%
    01:00 +13°C° 0.6 mm 3 mps 665 mmHg 90%
    02:00 +14°C° 1.8 mm 2 mps 664 mmHg 92%
    03:00 +14°C° 1.8 mm 2 mps 664 mmHg 94%
    04:00 +14°C° 1.8 mm 2 mps 664 mmHg 96%
    05:00 +14°C° 0.8 mm 2 mps 663 mmHg 95%
    06:00 +15°C° 0.8 mm 2 mps 663 mmHg 94%
    07:00 +15°C° 0.8 mm 1 mps 663 mmHg 93%
    08:00 +16°C° 0.4 mm 2 mps 663 mmHg 86%
    09:00 +17°C° 0.4 mm 2 mps 664 mmHg 79%
    10:00 +18°C° 0.4 mm 2 mps 664 mmHg 72%
    11:00 +18°C° 0.5 mm 2 mps 664 mmHg 67%
    12:00 +19°C° 0.5 mm 3 mps 664 mmHg 62%
    13:00 +19°C° 0.5 mm 3 mps 664 mmHg 57%
    14:00 +18°C° 0.3 mm 3 mps 663 mmHg 60%
    15:00 +17°C° 0.3 mm 3 mps 663 mmHg 63%
    16:00 +17°C° 0.3 mm 3 mps 662 mmHg 65%
    17:00 +14°C° 0.1 mm 3 mps 662 mmHg 73%
    18:00 +14°C° 0.1 mm 2 mps 662 mmHg 81%
    19:00 +12°C° 0.1 mm 2 mps 662 mmHg 88%
    20:00 +12°C° 0 mm 2 mps 662 mmHg 89%
    21:00 +11°C° 0 mm 1 mps 662 mmHg 89%
    22:00 +11°C° 0 mm 1 mps 662 mmHg 90%
    23:00 +11°C° 0 mm 1 mps 662 mmHg 90%

    25 September, Wednesday

    Time Temperature Precipitation Wind Pressure Humidity
    00:00 +11°C° 0 mm 1 mps 662 mmHg 89%
    01:00 +10°C° 0 mm 1 mps 662 mmHg 89%
    02:00 +10°C° 0 mm 1 mps 662 mmHg 88%
    03:00 +10°C° 0 mm 1 mps 662 mmHg 87%
    04:00 +10°C° 0 mm 1 mps 662 mmHg 87%
    05:00 +11°C° 0 mm 1 mps 662 mmHg 84%
    06:00 +12°C° 0 mm 1 mps 663 mmHg 81%
    07:00 +13°C° 0 mm 1 mps 663 mmHg 78%
    08:00 +15°C° 0 mm 1 mps 664 mmHg 68%
    09:00 +18°C° 0 mm 1 mps 665 mmHg 58%
    10:00 +20°C° 0 mm 1 mps 666 mmHg 48%
    11:00 +21°C° 0 mm 1 mps 666 mmHg 45%
    12:00 +21°C° 0 mm 2 mps 666 mmHg 42%
    13:00 +23°C° 0 mm 2 mps 666 mmHg 39%
    14:00 +21°C° 0 mm 2 mps 666 mmHg 42%
    15:00 +21°C° 0 mm 2 mps 666 mmHg 45%
    16:00 +20°C° 0 mm 2 mps 665 mmHg 47%
    17:00 +18°C° 0 mm 2 mps 665 mmHg 56%
    18:00 +16°C° 0 mm 1 mps 665 mmHg 65%
    19:00 +14°C° 0 mm 1 mps 665 mmHg 74%
    20:00 +14°C° 0 mm 1 mps 665 mmHg 74%
    21:00 +13°C° 0 mm 1 mps 665 mmHg 74%
    22:00 +12°C° 0 mm 0 mps 665 mmHg 74%
    23:00 +13°C° 0 mm 1 mps 665 mmHg 74%
    Show more